Tracking 35275 objects as of 8-Sep-2026
HD Live streaming from Space Station
objects crossing your sky now

JSSW-1


JSSW-1 is no longer on orbit


NORAD ID: 8053
Int'l Code: 1975-070A
Launch date: July 26, 1975
Source: People's Republic of China (PRC)
Launch site: Jiuquan Satellite Launch Center, China (JSC)
Decay date: 1975-09-14
Your satellite tracking list
Your tracking list is empty




NASA's NSSDC Master Catalog

Two Line Element Set (TLE):
1 08053U 75070  A 75255.90818020  .02905995 +00000-0 +00000-0 0  9996
2 08053 068.9919 298.0667 0033902 066.7279 293.7454 16.36484248007739
Source of the keplerian elements: AFSPC